This demonstration page uses our WeatherBlox Daily Observations layout. Learn more.

Left ArrowRight Arrow

47.50024, -111.30081

Hourly Observations for May 9, 2021

Temp ( °F °C ) Dew Point ( °F °C ) Humidity (%) Winds ( mph kmh ) Pressure ( in mb ) Visibility ( mi km ) Precip ( " mm )
12:53 am 00:53 Cloudy with Light Rain 35 1.7 33 0.6 93 93 W 14 22 30.15 1021 8 13 0.04 1.02
1:53 am 01:53 Cloudy with Light Rain 34 1.1 33 0.6 97 97 W 13 20 30.16 1021 10 16 0.03 0.76
2:53 am 02:53 Cloudy with Light Rain 35 1.7 33 0.6 93 93 W 9 15 30.15 1021 10 16 0.03 0.76
3:53 am 03:53 Cloudy with Light Rain 35 1.7 33 0.6 93 93 WNW 13 20 30.16 1022 10 16 0.01 0.25
4:44 am 04:44 Cloudy with Light Snow 33 0.6 32 0 96 96 W 10 17 30.18 1022 4 6 0.02 0.51
4:53 am 04:53 Cloudy with Light Snow 33 0.6 32 0 96 96 W 10 17 30.18 1022 5 8 0.03 0.76
5:35 am 05:35 Cloudy with Light Rain 34 1.1 32 0 92 92 W 8 13 30.19 1022 10 16 0.00 0.00
5:53 am 05:53 Cloudy 33 0.6 32 0 96 96 WSW 8 13 30.18 1022 10 16 0.00 0.00
6:14 am 06:14 Cloudy 33 0.6 32 0 96 96 WSW 8 13 30.19 1022 10 16 0.00 0.00
6:53 am 06:53 Cloudy with Light Wintry Mix 33 0.6 32 0 96 96 WSW 9 15 30.19 1023 8 13 0.00 0.00
7:00 am 07:00 Cloudy with Light Wintry Mix 34 1.1 33 0.6 97 97 WSW 8 13 30.20 1023 7 11 0.00 0.00
7:36 am 07:36 Cloudy with Light Snow 34 1.1 33 0.6 97 97 WSW 8 13 30.20 1023 6 10 0.01 0.25
7:43 am 07:43 Cloudy with Light Snow 34 1.1 33 0.6 97 97 WSW 9 15 30.21 1023 7 11 0.01 0.25
7:53 am 07:53 Cloudy with Light Snow 34 1.1 33 0.6 97 97 WSW 10 17 30.20 1023 4 6 0.02 0.51
8:10 am 08:10 Cloudy with Light Snow 33 0.6 32 0 96 96 WSW 8 13 30.21 1023 2 3 0.00 0.00
8:19 am 08:19 Cloudy with Light Snow 32 0 31 -0.6 96 96 WSW 8 13 30.22 1023 1 2 0.01 0.25
8:27 am 08:27 Cloudy with Light Snow 32 0 31 -0.6 96 96 WSW 8 13 30.23 1024 1 1 0.02 0.51
8:53 am 08:53 Cloudy with Light Snow 32 0 31 -0.6 96 96 WSW 9 15 30.22 1023 1 1 0.03 0.76
9:01 am 09:01 Cloudy with Light Snow 32 0 32 0 100 100 WSW 9 15 30.23 1024 1 1 0.01 0.25
9:09 am 09:09 Cloudy with Light Snow 33 0.6 32 0 96 96 WSW 10 17 30.22 1023 1 1 0.01 0.25
9:14 am 09:14 Cloudy with Light Snow 33 0.6 32 0 96 96 SW 10 17 30.22 1023 1 2 0.01 0.25
9:21 am 09:21 Cloudy with Light Snow 33 0.6 32 0 96 96 SW 12 19 30.22 1023 2 3 0.01 0.25
9:32 am 09:32 Cloudy with Light Snow 34 1.1 32 0 92 92 WSW 12 19 30.22 1023 2 3 0.02 0.51
9:53 am 09:53 Cloudy with Light Snow 34 1.1 33 0.6 97 97 WSW 9 15 30.22 1023 2 3 0.02 0.51
10:00 am 10:00 Cloudy with Light Snow 35 1.7 33 0.6 93 93 WSW 9 15 30.22 1023 5 8 0.00 0.00
10:29 am 10:29 Cloudy with Light Rain 35 1.7 34 1.1 96 96 WSW 12 19 30.22 1023 8 13 0.01 0.25
10:53 am 10:53 Cloudy with Light Rain 36 2.2 34 1.1 93 93 SW 9 15 30.23 1024 10 16 0.01 0.25
11:30 am 11:30 Cloudy with Light Snow 35 1.7 34 1.1 96 96 WSW 8 13 30.23 1024 3 4 0.03 0.76
11:49 am 11:49 Cloudy with Light Rain 37 3 36 2 93 93 WSW 12 19 30.22 1023 10 16 0.04 1.02
11:53 am 11:53 Cloudy with Light Rain 37 2.8 34 1.1 89 89 W 9 15 30.24 1024 9 14 0.04 1.02
12:35 pm 12:35 Cloudy with Light Rain 38 3.3 35 1.7 89 89 NW 3 6 30.21 1023 7 11 0.04 1.02
12:46 pm 12:46 Cloudy with Light Rain 39 3.9 34 1.1 82 82 NNW 3 6 30.20 1023 10 16 0.04 1.02
12:53 pm 12:53 Cloudy with Light Rain 39 3.9 35 1.7 86 86 Calm 30.24 1024 10 16 0.04 1.02
1:01 pm 13:01 Cloudy with Light Rain 39 3.9 34 1.1 82 82 VRB 7 11 30.19 1022 7 11 0.00 0.00
1:17 pm 13:17 Cloudy with Light Rain 39 3.9 36 2.2 89 89 VRB 6 9 30.20 1023 9 14 0.01 0.25
1:48 pm 13:48 Cloudy with Light Rain 39 4 36 2 87 87 W 8 13 30.19 1022 10 16 0.01 0.25
1:53 pm 13:53 Cloudy with Light Rain 39 3.9 36 2.2 89 89 NNW 5 7 30.24 1024 7 11 0.01 0.25
2:11 pm 14:11 Cloudy 41 5 36 2.2 82 82 NW 7 11 30.18 1022 10 16 0.00 0.00
3:53 pm 15:53 Cloudy 41 5 35 1.7 79 79 Calm 30.24 1024 10 16 0.00 0.00
4:21 pm 16:21 Cloudy 41 5 35 1.7 79 79 Calm 30.20 1023 10 16 0.00 0.00
4:35 pm 16:35 Cloudy with Light Rain 41 5 34 1.1 76 76 N 3 6 30.20 1023 10 16 0.00 0.00
4:53 pm 16:53 Cloudy 41 5 34 1.1 76 76 NE 3 6 30.25 1024 10 16 0.00 0.00
5:39 pm 17:39 Cloudy 42 5.6 35 1.7 76 76 WNW 5 7 30.19 1022 10 16 0.00 0.00
5:53 pm 17:53 Cloudy 44 6.7 34 1.1 68 68 NNW 5 7 30.24 1024 10 16 0.00 0.00
6:53 pm 18:53 Cloudy 45 7.2 32 0 61 61 VRB 3 6 30.24 1024 10 16 0.00 0.00
7:53 pm 19:53 Cloudy 42 5.6 35 1.7 76 76 N 8 13 30.26 1025 10 16 0.00 0.00
8:53 pm 20:53 Cloudy 40 4.4 35 1.7 83 83 N 5 7 30.29 1026 10 16 0.00 0.00
9:53 pm 21:53 Cloudy 40 4.4 35 1.7 83 83 N 9 15 30.29 1026 10 16 0.00 0.00
10:17 pm 22:17 Cloudy 39 3.9 36 2.2 89 89 N 6 9 30.25 1025 10 16 0.00 0.00
10:53 pm 22:53 Cloudy 38 3.3 35 1.7 89 89 N 5 7 30.30 1026 10 16 0.00 0.00
11:40 pm 23:40 Cloudy 38 3.3 35 1.7 89 89 NNW 3 6 30.26 1025 10 16 0.00 0.00
11:53 pm 23:53 Cloudy 38 3.3 35 1.7 89 89 N 3 6 30.29 1026 10 16 0.00 0.00

Powered by AerisWeather